Home   Weather   Israel   Rishon LeZion   Past weeks
Flag for Israel

Past Weather in Rishon LeZion, Israel — Yesterday and Last 2 Weeks

Currently: 81 °F. Clear. (Weather station: Ben Gurion International Airport, Israel). See more current weather

Past Weather in Rishon LeZion — Graph

°F

Rishon LeZion Temperature Yesterday

Maximum temperature yesterday: 93 °F (at 1:20 pm)
Minimum temperature yesterday: 77 °F (at 4:50 am)
Average temperature yesterday: 83 °F

High & Low Weather Summary for the Past Weeks

 TemperatureHumidityPressure
High102 °F (Jun 15, 1:20 pm)100% (Jun 5, 3:20 am)29.89 "Hg (Jun 5, 3:20 am)
Low72 °F (Jun 5, 5:20 am)26% (Jun 7, 1:50 pm)29.62 "Hg (Jun 8, 5:20 pm)
Average82 °F66%29.77 "Hg
* Reported Jun 2 7:20 pm — Jun 17 7:20 pm, Rishon LeZion. Weather by CustomWeather, © 2024

Note: Actual official high and low records may vary slightly from our data, if they occured in-between our weather recording intervals... More about our weather records

Rishon LeZion Weather History for the Previous 24 Hours

Scroll right to see more
 ConditionsComfort  
Time TempWeatherWind HumidityBarometerVisibility
7:20 pm
Mon, Jun 17
82 °FSunny.9 mph51%29.80 "Hg10 mi
6:50 pm82 °FSunny.8 mph55%29.80 "Hg10 mi
6:20 pm84 °FSunny.9 mph48%29.80 "Hg10 mi
5:20 pm86 °FPassing clouds.12 mph40%29.80 "HgN/A
4:20 pm86 °FPassing clouds.12 mph43%29.80 "HgN/A
3:20 pm88 °FPassing clouds.13 mph46%29.80 "HgN/A
2:50 pm90 °FSunny.14 mph46%29.80 "Hg10 mi
2:20 pm88 °FPassing clouds.13 mph46%29.80 "HgN/A
1:50 pm88 °FPassing clouds.13 mph49%29.80 "HgN/A
1:20 pm86 °FPassing clouds.10 mph55%29.80 "HgN/A
12:50 pm86 °FPassing clouds.12 mph55%29.83 "HgN/A
12:20 pm86 °FSunny.10 mph55%29.83 "Hg10 mi
11:50 am86 °FPassing clouds.10 mph59%29.83 "HgN/A
11:20 am88 °FPassing clouds.6 mph49%29.83 "HgN/A
10:50 am86 °FSunny.3 mph52%29.83 "Hg10 mi
10:20 am86 °FPassing clouds.6 mph52%29.83 "HgN/A
9:50 am84 °FPassing clouds.6 mph58%29.83 "HgN/A
9:20 am82 °FPassing clouds.7 mph58%29.86 "HgN/A
8:20 am79 °FScattered clouds.7 mph70%29.86 "HgN/A
7:50 am79 °FScattered clouds.6 mph70%29.86 "HgN/A
7:20 am79 °FPassing clouds.6 mph74%29.83 "HgN/A
6:50 am77 °FPassing clouds.6 mph79%29.83 "HgN/A
6:20 am75 °FScattered clouds.5 mph78%29.83 "HgN/A
5:50 am75 °FScattered clouds.6 mph78%29.83 "HgN/A
5:20 am75 °FPassing clouds.7 mph78%29.80 "HgN/A
4:50 am75 °FPassing clouds.5 mph78%29.80 "HgN/A
4:20 am75 °FPassing clouds.6 mph78%29.80 "HgN/A
3:50 am75 °FPassing clouds.6 mph83%29.80 "HgN/A
3:20 am75 °FPassing clouds.6 mph78%29.80 "HgN/A
2:50 am77 °FPassing clouds.5 mph79%29.80 "HgN/A
2:20 am77 °FPassing clouds.7 mph74%29.80 "HgN/A
1:50 am77 °FPassing clouds.6 mph79%29.80 "HgN/A
1:20 am77 °FClear.5 mph79%29.80 "Hg10 mi
12:50 am77 °FClear.3 mph79%29.80 "Hg10 mi
12:20 am77 °FClear.3 mph79%29.80 "Hg10 mi
11:50 pm
Sun, Jun 16
79 °FClear.5 mph74%29.80 "Hg10 mi
11:20 pm79 °FClear.5 mph70%29.80 "Hg10 mi
10:50 pm79 °FClear.6 mph70%29.80 "Hg10 mi
10:20 pm79 °FClear.2 mph74%29.80 "Hg10 mi
9:50 pm79 °FClear.3 mph74%29.80 "Hg10 mi
9:20 pm81 °FClear.5 mph70%29.80 "Hg10 mi
Weather by CustomWeather, © 2024

See weather overview